SCP
1 1 1 1 1 1 0 0 0 0 0 0 0 0 0 0 0 0 -0 -0 0 0 0 0 0 0 0 0 0 0 -0 -0 -0 -0 0 0 -0 -0
1 1 1 1 1 0 0 0 0 0 0 0 0 0 0 0 0 0 0 0 0 -0 0 0 0 0 0 0 0 0 0 -0 -0 -0 0 0 0 -0
1 1 1 1 0 0 0 0 0 0 0 0 0 0 0 0 0 0 0 0 0 0 0 0 0 0 0 0 0 0 -0 -0 -0 -0 0 0 0 0
0 0 1 0 0 0 0 0 0 0 0 0 0 0 0 0 0 0 0 0 0 0 0 0 0 0 0 0 0 0 0 0 0 0 0 0 0 0
0 0 0 0 0 0 0 0 0 0 0 0 0 0 0 0 0 0 0 0 0 0 0 0 0 0 0 0 0 0 0 0 0 0 0 0 0 0
0 0 0 0 0 0 0 0 0 0 0 0 0 0 0 0 0 0 0 0 0 0 0 0 0 0 0 0 0 0 0 0 0 0 0 0 0 0
0 0 0 0 0 0 0 0 0 0 0 0 0 0 0 0 0 0 0 0 0 0 0 0 0 0 0 0 0 0 0 0 0 0 0 0 0 0
0 0 0 0 0 0 0 0 0 0 0 0 0 0 0 0 0 0 0 0 0 0 0 0 0 0 0 0 0 0 0 0 0 0 0 0 0 0
0 0 0 0 0 0 0 0 0 0 0 0 0 0 0 0 0 0 0 0 0 0 0 0 0 0 0 0 0 0 0 0 0 0 0 0 0 0
0 0 0 0 0 0 0 0 0 0 0 0 0 0 0 0 0 0 0 0 0 0 0 0 0 0 0 0 0 0 0 0 0 0 0 0 0 0
0 0 0 0 0 0 0 0 0 0 0 0 0 0 0 0 0 0 0 0 0 0 0 0 0 0 0 0 0 0 0 0 0 0 0 0 0 0
0 0 0 0 0 0 0 0 0 0 0 0 0 0 0 0 0 0 0 0 0 0 0 0 0 0 0 0 0 0 0 0 0 0 0 0 0 0
0 0 0 0 0 0 0 0 -0 -0 0 0 0 0 0 0 0 0 0 0 0 0 0 0 0 0 0 0 0 0 0 0 0 0 0 0 0 0
0 0 0 0 0 0 0 0 -0 -0 -0 0 0 0 0 0 0 0 0 0 0 0 0 0 0 0 0 0 0 0 0 0 0 0 0 0 0 0
0 0 0 0 0 0 0 -0 -0 0 -0 -0 0 0 0 0 0 0 0 0 0 0 0 0 0 0 0 0 0 0 0 0 0 0 0 0 0 0
0 0 0 0 0 0 0 0 0 0 -0 -0 0 0 0 0 0 0 0 0 0 0 0 0 0 0 0 0 0 0 0 0 0 0 0 0 0 0
0 0 0 0 0 0 0 0 0 0 0 0 0 0 0 0 0 0 0 0 0 0 0 0 0 0 0 0 0 0 0 0 0 0 0 0 0 0
0 0 0 0 0 0 0 0 0 0 0 0 0 0 0 0 0 0 0 0 0 0 0 0 0 0 0 0 0 0 0 0 0 0 0 0 0 0
0 0 0 0 0 0 0 0 0 0 0 0 0 -0 0 0 0 0 0 0 0 0 0 0 0 0 0 0 0 0 0 0 0 0 0 0 0 0
0 0 0 0 0 0 0 0 0 0 0 0 0 -0 0 0 0 0 0 0 0 0 0 0 0 0 0 0 0 0 0 0 0 0 0 0 0 0
0 0 0 0 0 0 0 0 0 0 0 0 0 0 0 0 -0 0 0 0 0 0 0 0 0 0 0 0 0 0 0 0 0 0 0 0 0 0
0 0 0 0 0 0 -0 0 0 0 0 0 0 0 0 -0 0 0 0 0 0 0 0 0 0 0 0 0 0 0 0 0 0 0 0 0 0 0
0 0 0 0 0 0 0 0 0 0 0 0 -0 0 0 0 0 0 0 0 0 0 0 0 0 0 0 0 -0 0 0 0 0 0 0 0 0 0
Wind_Speed_500mb
38 38 31 29 28 22 25 22 19 15 9 8 7 10 12 13 17 17 18 23 26 33 38 43 39 36 33 31 34 34 36 32 24 21 27 35 28 28
40 37 32 30 26 23 25 24 23 17 13 9 8 11 12 14 17 20 23 23 26 31 39 41 39 34 32 34 35 35 36 34 29 36 36 35 22 29
42 36 33 32 25 24 24 24 24 19 17 15 12 10 13 15 17 19 18 22 30 38 38 38 37 35 35 36 34 31 35 26 27 31 36 33 29 33
39 37 35 32 26 25 25 25 23 23 17 14 15 13 13 13 17 21 16 22 27 34 39 36 34 31 33 38 33 33 27 29 30 31 34 30 33 35
33 35 35 29 27 27 26 25 23 23 24 16 12 16 19 18 17 24 23 24 29 35 37 33 29 29 38 40 41 30 25 29 29 34 31 30 35 36
34 35 31 25 26 25 24 23 24 22 25 19 18 19 24 25 24 21 24 26 29 34 36 35 34 31 32 48 31 29 28 30 34 32 31 31 32 31
35 34 28 24 26 25 24 23 23 22 21 23 22 27 28 32 35 29 23 25 29 34 39 44 40 37 33 40 40 35 32 31 32 31 31 31 30 30
37 33 26 22 24 26 26 26 22 22 25 28 33 31 30 34 34 42 32 33 33 35 45 44 43 42 44 48 42 41 33 35 35 33 29 31 28 29
37 28 24 21 23 24 24 23 24 26 30 33 32 35 30 32 36 37 36 33 35 42 44 44 41 39 40 39 36 33 31 36 35 32 32 32 29 31
35 27 20 18 22 24 24 22 21 23 22 27 30 26 22 23 31 30 36 37 34 41 40 42 37 35 44 41 34 32 32 32 32 31 31 31 31 34
33 26 21 20 23 25 24 23 25 21 16 21 31 32 24 23 27 35 37 35 38 42 42 41 43 41 42 36 34 33 33 32 28 27 29 29 31 36
32 26 23 23 23 23 22 21 23 18 16 14 23 27 31 27 29 28 28 33 34 39 45 35 48 50 39 37 35 32 37 38 32 32 32 34 36 42
29 25 23 21 19 20 20 22 22 21 16 18 18 22 31 32 36 33 30 30 26 23 32 42 43 45 34 25 41 38 38 37 33 34 36 37 39 41
25 25 23 18 17 14 13 20 23 23 22 21 17 19 28 36 37 32 29 35 33 22 16 39 26 34 31 29 22 36 43 35 38 37 37 38 39 40
26 25 22 20 22 26 22 19 20 21 21 19 20 21 24 29 34 33 32 29 28 24 21 18 31 29 33 26 19 25 23 31 37 43 43 38 37 39
28 26 24 28 28 27 23 21 16 16 16 17 19 26 30 32 33 34 33 31 29 26 24 24 23 35 27 31 30 30 23 15 15 19 27 30 35 39
28 29 31 32 34 30 25 21 17 9 11 18 22 25 30 32 34 34 36 29 31 29 26 28 27 26 32 28 28 29 27 18 14 16 20 23 26 28
26 27 34 35 34 29 25 21 17 10 7 18 22 23 25 26 29 34 35 38 23 31 27 29 26 23 25 30 30 30 29 23 18 21 24 29 30 28
26 25 32 36 33 29 25 25 19 11 7 14 18 21 21 19 28 31 31 35 31 22 22 28 30 28 30 29 18 20 23 22 17 16 19 23 25 20
26 24 29 35 34 31 29 25 19 10 8 16 17 18 20 24 28 28 29 30 27 24 24 26 29 29 25 13 10 14 14 15 16 17 20 25 26 26
24 25 28 37 36 28 30 26 17 14 14 15 18 19 20 20 23 26 26 29 30 25 16 13 15 19 22 19 18 15 16 14 16 20 21 25 27 28
22 23 25 39 33 33 31 28 23 21 15 16 14 17 21 24 23 24 22 22 29 25 19 16 16 16 15 16 18 19 22 20 22 25 29 31 31 19
19 25 22 30 39 36 33 29 23 20 16 15 14 11 13 17 20 21 20 18 25 27 21 13 14 15 17 22 25 27 29 28 28 32 22 32 28 28
Wind_Direction_500mb
220 223 222 233 243 239 246 246 237 250 245 256 226 253 240 222 223 217 222 208 201 198 195 197 200 200 206 208 206 200 201 201 208 193 194 190 194 189
218 218 223 239 240 242 243 233 230 231 235 231 256 250 237 218 210 220 227 204 200 195 195 198 201 201 206 205 203 202 192 198 197 179 188 195 203 188
214 219 230 241 235 232 227 225 229 223 227 245 259 254 224 222 216 224 220 214 203 199 197 199 202 205 205 197 194 185 194 198 190 181 190 190 195 185
214 223 237 231 226 226 222 221 220 228 223 218 255 235 218 198 199 210 207 196 193 187 194 197 202 205 196 187 182 186 201 184 180 186 194 193 186 185
217 234 230 225 224 222 220 219 220 232 228 220 231 228 210 201 194 200 197 193 189 188 192 197 199 190 187 185 183 187 194 184 184 184 192 190 185 188
226 219 218 221 218 215 212 216 224 226 229 221 220 230 211 201 190 195 194 192 190 191 189 187 184 180 188 188 197 203 194 184 186 190 189 190 191 195
208 208 212 214 215 211 210 216 224 225 222 215 224 226 215 204 200 197 194 187 184 185 183 177 180 182 179 190 188 192 196 195 195 200 189 194 197 203
203 205 209 215 216 216 216 220 226 239 243 240 232 222 220 213 201 204 203 188 171 179 178 176 179 180 180 184 194 191 197 196 202 197 197 199 206 210
198 199 209 221 221 219 216 221 251 254 247 246 241 226 225 218 204 200 202 184 187 179 183 180 184 190 187 188 189 197 199 202 202 201 206 210 212 215
197 205 215 227 218 214 219 241 255 248 249 241 218 203 208 220 212 205 193 196 189 181 183 178 181 182 182 186 191 198 203 205 212 216 214 216 216 218
198 209 225 221 218 220 236 255 248 228 246 227 203 190 201 203 198 203 199 190 180 180 187 192 186 190 193 200 201 202 209 213 216 221 225 226 227 229
205 218 223 219 223 233 247 241 217 213 222 181 186 197 200 201 196 199 205 183 190 192 195 189 193 191 192 204 207 214 216 218 227 233 239 238 238 239
213 220 220 218 225 241 230 211 203 198 188 197 213 209 202 197 188 191 197 189 199 199 205 195 198 203 211 216 218 225 224 227 230 239 241 241 242 245
213 213 204 207 208 178 175 181 185 192 196 203 202 188 190 186 184 192 199 196 195 195 213 209 203 201 204 216 223 228 226 234 238 244 249 249 245 246
198 190 189 184 163 155 148 144 155 171 190 202 192 185 177 182 189 195 200 200 205 214 198 199 203 211 219 222 226 236 223 240 252 250 246 250 251 252
185 182 179 168 167 171 168 163 168 180 201 206 194 191 188 189 194 201 203 201 202 200 202 205 208 210 224 226 238 239 249 237 241 235 243 251 254 254
181 178 173 175 175 176 172 168 184 207 215 200 195 194 194 200 203 204 197 199 201 202 205 215 211 217 224 229 236 234 230 224 244 260 259 264 263 261
173 180 176 183 181 174 176 177 185 211 247 192 183 187 191 200 205 204 207 196 193 196 198 211 216 219 227 243 244 233 224 234 266 272 273 273 272 269
181 180 182 184 183 187 186 187 185 190 236 181 182 187 195 195 186 190 194 198 198 196 200 215 222 226 241 248 236 227 238 253 260 263 275 274 275 267
187 187 186 188 187 199 192 182 179 181 192 184 187 191 189 191 185 193 191 196 195 204 214 220 227 232 229 219 205 222 225 246 268 277 280 280 276 273
195 195 190 189 190 189 187 177 170 179 186 185 194 202 200 198 198 202 205 209 209 208 204 215 218 203 191 229 255 243 234 238 273 286 289 282 282 281
199 186 185 184 187 179 177 178 180 185 174 170 192 204 204 205 207 202 203 197 191 192 190 179 171 187 201 231 253 258 250 271 288 291 287 280 275 267
178 171 172 177 176 178 178 181 186 193 195 197 185 192 201 199 200 203 198 196 202 204 201 207 209 221 237 253 262 268 275 287 292 287 284 285 279 274
Wind_Speed_850mb
38 38 31 29 28 22 25 22 19 15 9 8 7 10 12 13 17 17 18 23 26 33 38 43 39 36 33 31 34 34 36 32 24 21 27 35 28 28
40 37 32 30 26 23 25 24 23 17 13 9 8 11 12 14 17 20 23 23 26 31 39 41 39 34 32 34 35 35 36 34 29 36 36 35 22 29
42 36 33 32 25 24 24 24 24 19 17 15 12 10 13 15 17 19 18 22 30 38 38 38 37 35 35 36 34 31 35 26 27 31 36 33 29 33
39 37 35 32 26 25 25 25 23 23 17 14 15 13 13 13 17 21 16 22 27 34 39 36 34 31 33 38 33 33 27 29 30 31 34 30 33 35
33 35 35 29 27 27 26 25 23 23 24 16 12 16 19 18 17 24 23 24 29 35 37 33 29 29 38 40 41 30 25 29 29 34 31 30 35 36
34 35 31 25 26 25 24 23 24 22 25 19 18 19 24 25 24 21 24 26 29 34 36 35 34 31 32 48 31 29 28 30 34 32 31 31 32 31
35 34 28 24 26 25 24 23 23 22 21 23 22 27 28 32 35 29 23 25 29 34 39 44 40 37 33 40 40 35 32 31 32 31 31 31 30 30
37 33 26 22 24 26 26 26 22 22 25 28 33 31 30 34 34 42 32 33 33 35 45 44 43 42 44 48 42 41 33 35 35 33 29 31 28 29
37 28 24 21 23 24 24 23 24 26 30 33 32 35 30 32 36 37 36 33 35 42 44 44 41 39 40 39 36 33 31 36 35 32 32 32 29 31
35 27 20 18 22 24 24 22 21 23 22 27 30 26 22 23 31 30 36 37 34 41 40 42 37 35 44 41 34 32 32 32 32 31 31 31 31 34
33 26 21 20 23 25 24 23 25 21 16 21 31 32 24 23 27 35 37 35 38 42 42 41 43 41 42 36 34 33 33 32 28 27 29 29 31 36
32 26 23 23 23 23 22 21 23 18 16 14 23 27 31 27 29 28 28 33 34 39 45 35 48 50 39 37 35 32 37 38 32 32 32 34 36 42
29 25 23 21 19 20 20 22 22 21 16 18 18 22 31 32 36 33 30 30 26 23 32 42 43 45 34 25 41 38 38 37 33 34 36 37 39 41
25 25 23 18 17 14 13 20 23 23 22 21 17 19 28 36 37 32 29 35 33 22 16 39 26 34 31 29 22 36 43 35 38 37 37 38 39 40
26 25 22 20 22 26 22 19 20 21 21 19 20 21 24 29 34 33 32 29 28 24 21 18 31 29 33 26 19 25 23 31 37 43 43 38 37 39
28 26 24 28 28 27 23 21 16 16 16 17 19 26 30 32 33 34 33 31 29 26 24 24 23 35 27 31 30 30 23 15 15 19 27 30 35 39
28 29 31 32 34 30 25 21 17 9 11 18 22 25 30 32 34 34 36 29 31 29 26 28 27 26 32 28 28 29 27 18 14 16 20 23 26 28
26 27 34 35 34 29 25 21 17 10 7 18 22 23 25 26 29 34 35 38 23 31 27 29 26 23 25 30 30 30 29 23 18 21 24 29 30 28
26 25 32 36 33 29 25 25 19 11 7 14 18 21 21 19 28 31 31 35 31 22 22 28 30 28 30 29 18 20 23 22 17 16 19 23 25 20
26 24 29 35 34 31 29 25 19 10 8 16 17 18 20 24 28 28 29 30 27 24 24 26 29 29 25 13 10 14 14 15 16 17 20 25 26 26
24 25 28 37 36 28 30 26 17 14 14 15 18 19 20 20 23 26 26 29 30 25 16 13 15 19 22 19 18 15 16 14 16 20 21 25 27 28
22 23 25 39 33 33 31 28 23 21 15 16 14 17 21 24 23 24 22 22 29 25 19 16 16 16 15 16 18 19 22 20 22 25 29 31 31 19
19 25 22 30 39 36 33 29 23 20 16 15 14 11 13 17 20 21 20 18 25 27 21 13 14 15 17 22 25 27 29 28 28 32 22 32 28 28
Wind_Direction_850mb
220 223 222 233 243 239 246 246 237 250 245 256 226 253 240 222 223 217 222 208 201 198 195 197 200 200 206 208 206 200 201 201 208 193 194 190 194 189
218 218 223 239 240 242 243 233 230 231 235 231 256 250 237 218 210 220 227 204 200 195 195 198 201 201 206 205 203 202 192 198 197 179 188 195 203 188
214 219 230 241 235 232 227 225 229 223 227 245 259 254 224 222 216 224 220 214 203 199 197 199 202 205 205 197 194 185 194 198 190 181 190 190 195 185
214 223 237 231 226 226 222 221 220 228 223 218 255 235 218 198 199 210 207 196 193 187 194 197 202 205 196 187 182 186 201 184 180 186 194 193 186 185
217 234 230 225 224 222 220 219 220 232 228 220 231 228 210 201 194 200 197 193 189 188 192 197 199 190 187 185 183 187 194 184 184 184 192 190 185 188
226 219 218 221 218 215 212 216 224 226 229 221 220 230 211 201 190 195 194 192 190 191 189 187 184 180 188 188 197 203 194 184 186 190 189 190 191 195
208 208 212 214 215 211 210 216 224 225 222 215 224 226 215 204 200 197 194 187 184 185 183 177 180 182 179 190 188 192 196 195 195 200 189 194 197 203
203 205 209 215 216 216 216 220 226 239 243 240 232 222 220 213 201 204 203 188 171 179 178 176 179 180 180 184 194 191 197 196 202 197 197 199 206 210
198 199 209 221 221 219 216 221 251 254 247 246 241 226 225 218 204 200 202 184 187 179 183 180 184 190 187 188 189 197 199 202 202 201 206 210 212 215
197 205 215 227 218 214 219 241 255 248 249 241 218 203 208 220 212 205 193 196 189 181 183 178 181 182 182 186 191 198 203 205 212 216 214 216 216 218
198 209 225 221 218 220 236 255 248 228 246 227 203 190 201 203 198 203 199 190 180 180 187 192 186 190 193 200 201 202 209 213 216 221 225 226 227 229
205 218 223 219 223 233 247 241 217 213 222 181 186 197 200 201 196 199 205 183 190 192 195 189 193 191 192 204 207 214 216 218 227 233 239 238 238 239
213 220 220 218 225 241 230 211 203 198 188 197 213 209 202 197 188 191 197 189 199 199 205 195 198 203 211 216 218 225 224 227 230 239 241 241 242 245
213 213 204 207 208 178 175 181 185 192 196 203 202 188 190 186 184 192 199 196 195 195 213 209 203 201 204 216 223 228 226 234 238 244 249 249 245 246
198 190 189 184 163 155 148 144 155 171 190 202 192 185 177 182 189 195 200 200 205 214 198 199 203 211 219 222 226 236 223 240 252 250 246 250 251 252
185 182 179 168 167 171 168 163 168 180 201 206 194 191 188 189 194 201 203 201 202 200 202 205 208 210 224 226 238 239 249 237 241 235 243 251 254 254
181 178 173 175 175 176 172 168 184 207 215 200 195 194 194 200 203 204 197 199 201 202 205 215 211 217 224 229 236 234 230 224 244 260 259 264 263 261
173 180 176 183 181 174 176 177 185 211 247 192 183 187 191 200 205 204 207 196 193 196 198 211 216 219 227 243 244 233 224 234 266 272 273 273 272 269
181 180 182 184 183 187 186 187 185 190 236 181 182 187 195 195 186 190 194 198 198 196 200 215 222 226 241 248 236 227 238 253 260 263 275 274 275 267
187 187 186 188 187 199 192 182 179 181 192 184 187 191 189 191 185 193 191 196 195 204 214 220 227 232 229 219 205 222 225 246 268 277 280 280 276 273
195 195 190 189 190 189 187 177 170 179 186 185 194 202 200 198 198 202 205 209 209 208 204 215 218 203 191 229 255 243 234 238 273 286 289 282 282 281
199 186 185 184 187 179 177 178 180 185 174 170 192 204 204 205 207 202 203 197 191 192 190 179 171 187 201 231 253 258 250 271 288 291 287 280 275 267
178 171 172 177 176 178 178 181 186 193 195 197 185 192 201 199 200 203 198 196 202 204 201 207 209 221 237 253 262 268 275 287 292 287 284 285 279 274